User: anonymous   Login
Location: Unspecified
(0.0000°N, 0.0000°E)
Time: 13:34:17
(UTC+00:00)
Language:

Explorer 7 - Orbit

View from above orbital plane
View from above orbital plane
View from above satellite
View from above satellite

Ground track
Ground track

The orbit data is extracted from the following two-line orbital elements,

1 00022U 59009A   14304.11865140  .00005187  00000-0  44971-3 0   681
2 00022 050.2859 011.1541 0152972 338.0164 021.4266 14.90021704917915
Epoch (UTC): 31 October 2014 02:50:51
Eccentricity: 0.0152972
inclination: 50.2859°
perigee height: 491 km
apogee height: 704 km
right ascension of ascending node: 11.1541°
argument of perigee: 338.0164°
revolutions per day: 14.90021704
mean anomaly at epoch: 21.4266°
orbit number at epoch: 91791

The dashed part of the orbit path shows where the satellite is in the earth's shadow,  

DLR